Theta_e
309 309 309 309 309 309 309 309 310 310 310 311 311 312 312 312 312 307 298 299 299 297 299 303 303 295 295 294 291 296 295 297 295 291 290 290 288 290 289 291 290 288 286 284 284 279 279 299 299 291 292 294 297 296
309 309 309 309 309 309 309 309 310 310 310 310 311 312 312 312 312 309 297 303 303 299 299 302 304 303 302 302 298 297 296 296 297 291 291 290 288 288 287 284 295 287 291 287 288 285 292 298 295 298 298 296 297 296
309 309 309 309 309 309 309 309 310 310 310 310 310 311 312 312 312 309 299 299 300 299 299 297 298 304 305 303 305 296 296 303 301 299 295 292 288 290 286 287 290 294 297 292 292 295 297 299 300 302 302 299 299 299
309 309 309 309 309 309 309 309 310 310 310 310 310 311 312 312 311 309 299 300 298 299 294 296 306 306 310 305 306 303 303 305 303 299 294 292 290 295 290 292 292 297 296 294 293 297 299 302 303 303 302 302 302 302
308 309 309 309 309 309 309 309 309 310 310 310 311 312 311 311 310 307 304 302 302 300 295 297 305 306 306 305 307 305 305 302 299 295 295 294 296 295 295 295 293 300 294 292 291 299 299 299 303 304 301 302 303 302
308 308 309 309 309 309 309 309 309 310 310 311 312 312 311 310 309 302 301 305 303 305 301 294 300 303 308 307 304 303 304 302 299 297 295 297 301 297 291 290 298 301 302 302 299 302 303 304 305 305 303 303 303 302
308 308 309 309 309 309 309 309 310 310 310 310 311 310 310 309 303 301 303 308 306 307 298 294 296 305 309 308 306 307 308 304 301 301 299 299 300 302 296 292 298 301 303 305 305 304 301 302 300 304 304 305 306 303
308 308 309 309 309 309 309 309 310 310 309 310 310 310 310 309 306 303 307 308 306 304 302 294 297 300 307 302 300 307 302 305 304 302 301 298 299 299 288 291 296 299 301 302 304 305 303 303 303 302 303 302 302 300
308 308 309 309 309 309 309 309 309 309 309 309 309 310 308 306 304 303 312 310 305 304 298 298 296 294 306 301 302 301 301 295 302 298 299 300 288 285 290 294 295 296 299 300 303 305 305 302 301 301 300 300 299 298
308 308 308 308 308 308 308 309 309 309 309 309 307 303 303 305 312 310 306 305 306 306 303 297 302 297 302 300 297 295 297 293 294 297 302 290 286 293 296 297 299 298 299 300 297 298 300 300 301 301 300 300 301 301
308 308 308 307 307 307 307 309 308 308 308 303 299 298 302 308 305 305 301 302 303 299 300 300 300 296 302 295 294 298 292 293 291 294 294 286 286 292 297 298 300 301 301 300 300 302 303 302 301 302 302 303 302 304
307 306 305 306 306 306 307 308 308 304 302 302 302 305 302 302 307 301 297 299 297 295 299 297 298 299 299 301 295 297 291 294 290 298 287 283 290 295 296 297 299 301 302 301 301 300 301 302 304 304 303 303 303 303
305 305 306 306 307 306 307 308 308 307 306 304 300 300 302 302 293 296 292 293 293 297 298 298 296 297 300 302 299 296 291 288 295 287 285 287 292 296 296 297 299 301 300 301 300 300 301 301 303 305 304 305 306 305
304 304 305 305 306 307 308 308 308 307 302 299 301 290 294 294 297 295 296 297 300 299 298 297 296 296 297 295 296 292 290 289 284 279 281 289 293 295 296 297 297 297 298 298 298 299 299 300 301 305 306 306 305 305
304 305 305 305 308 308 307 306 307 305 302 300 301 288 294 298 301 300 301 300 301 300 298 296 296 296 293 292 290 287 284 282 284 280 289 293 292 293 293 295 295 295 295 296 298 298 299 300 300 302 305 306 305 305
304 304 306 308 307 306 306 305 305 307 306 303 300 295 297 298 298 300 298 298 301 299 299 297 294 293 289 289 286 285 279 279 282 289 291 290 291 292 294 295 296 296 297 297 299 299 300 301 301 301 304 306 306 305
304 301 307 306 305 304 305 303 306 307 305 303 298 300 298 300 299 299 300 300 302 298 294 295 290 288 291 285 284 287 283 285 292 289 289 289 293 294 295 296 296 297 296 296 298 299 301 305 306 305 303 304 305 306
301 303 304 304 303 303 305 307 306 305 301 300 296 299 299 300 299 301 302 302 300 298 297 293 294 288 284 284 279 286 291 290 289 288 289 293 294 295 295 296 297 296 295 296 298 301 303 303 303 303 303 302 304 304
300 301 303 303 303 301 301 305 307 299 300 300 300 300 299 300 304 305 303 302 303 302 298 294 290 286 288 290 289 289 288 288 286 288 293 294 295 295 296 296 296 295 295 296 297 300 302 303 303 304 303 303 302 302
301 303 304 305 305 303 301 302 307 301 298 300 301 300 300 300 304 303 302 301 300 297 293 291 290 293 291 293 292 290 290 289 288 288 292 293 294 295 295 295 294 294 295 295 296 295 300 303 301 300 300 300 299 298
302 306 307 307 304 303 301 300 301 302 302 299 301 300 299 302 303 302 299 300 296 294 292 294 294 295 300 294 293 291 290 290 291 293 292 291 293 294 294 294 294 294 293 293 292 293 294 297 299 297 295 294 295 296
302 306 305 308 304 306 302 303 301 302 299 300 301 301 298 301 299 300 301 297 297 295 296 295 296 297 295 293 292 292 292 293 296 295 293 293 292 292 292 293 292 292 292 291 291 292 292 293 294 294 293 292 291 291
303 304 303 304 302 298 293 301 298 300 297 301 300 297 299 300 301 303 297 297 298 299 299 299 299 298 295 295 295 293 293 293 294 293 294 290 293 293 293 293 293 292 291 291 292 292 292 290 291 292 292 292 291 290
306 303 299 299 299 293 301 299 303 302 301 297 298 297 298 298 301 298 295 295 298 299 299 298 296 293 294 293 291 291 291 295 295 295 294 288 290 291 292 292 293 294 294 293 292 291 291 291 290 290 290 290 289 288
294 293 295 289 299 298 296 298 299 300 298 299 299 297 298 300 294 294 294 295 297 297 297 296 293 291 292 290 290 291 293 295 294 289 289 288 291 290 291 292 292 293 295 292 291 292 292 291 290 289 289 289 288 287
288 294 290 295 295 295 298 297 298 298 298 297 297 299 299 298 296 294 296 298 298 298 298 296 291 291 291 292 290 290 291 295 292 288 288 289 289 286 286 288 289 290 294 294 291 289 288 288 289 289 289 288 286 288
289 292 297 300 300 300 298 299 299 297 295 296 298 298 297 294 293 297 299 301 301 301 299 295 293 293 293 292 293 293 293 294 292 291 292 291 291 290 289 286 285 288 291 292 290 290 288 288 287 287 287 287 287 287
294 295 292 295 295 297 296 296 296 294 296 300 300 296 296 295 295 301 302 304 304 303 296 296 295 297 296 296 296 294 293 293 294 294 292 292 292 292 292 291 291 287 291 290 291 290 290 289 289 288 287 286 286 286
292 295 294 291 293 295 296 296 297 297 299 301 298 298 299 304 306 304 304 304 305 301 299 297 292 295 295 295 296 294 292 294 291 289 289 287 286 289 292 292 291 290 290 288 285 287 288 287 288 288 287 286 285 286
292 296 292 292 291 290 294 297 296 299 301 303 304 304 303 304 307 309 308 305 303 303 304 301 296 294 292 292 290 289 290 292 292 290 287 286 287 290 293 293 292 292 291 290 288 288 285 287 286 287 286 284 283 283
295 294 293 294 293 295 297 299 300 300 301 301 303 301 301 303 307 308 306 308 308 306 300 298 297 295 294 292 291 290 288 291 293 292 291 290 288 289 289 290 290 290 290 290 288 287 286 286 285 284 284 283 283 283
294 293 292 292 293 300 302 298 299 298 299 299 299 300 301 301 299 303 309 310 308 303 296 295 295 295 295 294 294 292 289 292 291 291 291 289 289 290 290 289 290 290 289 289 288 287 287 286 285 284 284 284 283 283
295 295 295 295 295 295 299 300 299 299 299 299 300 301 302 300 298 303 309 311 308 305 303 300 297 296 294 293 291 289 287 286 284 282 282 282 283 285 287 288 290 290 289 287 287 286 286 285 284 284 283 283 283 283
Wind_Speed
18 18 19 20 21 21 22 23 24 25 25 25 24 24 23 19 16 7 7 4 5 3 7 5 4 1 4 0 4 5 6 5 3 2 4 4 2 2 2 1 3 5 4 4 1 1 7 6 9 8 9 3 7 6
18 19 20 20 21 22 22 23 24 25 26 25 24 24 23 19 14 9 4 3 1 4 8 5 9 10 11 15 6 1 7 5 6 4 1 2 1 1 4 3 2 2 8 6 9 8 6 5 8 4 9 8 7 6
18 19 20 21 22 22 23 24 25 26 27 27 24 25 23 19 13 6 4 4 3 2 7 4 4 7 2 8 8 6 3 4 1 5 5 3 3 4 2 5 4 4 4 4 2 5 6 6 4 8 8 8 8 8
17 19 20 22 23 23 24 26 26 27 28 29 26 26 24 19 13 6 3 2 0 1 1 8 4 8 14 1 5 5 7 3 6 4 2 3 3 4 5 6 5 6 3 5 5 5 5 8 8 9 10 8 7 8
17 18 19 21 22 24 24 26 27 28 29 30 30 27 25 18 13 5 4 4 3 4 3 6 10 7 5 3 7 6 7 5 3 2 2 4 3 2 2 1 4 5 7 5 7 9 7 12 9 10 8 8 11 12
17 18 19 20 21 23 25 26 27 29 30 32 34 27 24 16 9 0 4 1 4 3 0 5 5 10 13 4 4 5 3 2 4 5 5 4 4 6 1 2 3 6 8 6 8 10 13 8 9 10 14 13 11 13
18 19 19 20 21 23 25 27 28 30 31 34 36 29 23 8 2 3 4 3 2 3 2 5 6 5 6 6 4 4 6 3 4 2 4 3 3 5 3 3 17 15 18 20 17 9 1 6 9 13 8 9 10 10
18 19 20 21 22 23 24 26 28 29 32 35 35 30 23 5 1 3 2 2 1 2 3 1 5 7 5 3 3 2 3 0 2 4 3 2 2 5 5 14 18 18 20 21 26 9 10 11 10 9 10 7 9 9
17 19 20 22 22 22 24 26 28 28 33 35 33 22 1 3 3 3 5 3 1 4 1 1 2 3 2 2 2 2 2 2 2 3 3 5 6 6 7 15 16 17 13 17 18 19 13 3 6 8 9 8 8 7
18 19 21 22 23 23 23 25 26 28 32 28 8 5 3 2 13 10 3 3 3 2 2 2 2 5 3 1 3 1 1 3 2 4 2 7 2 7 7 10 10 13 18 16 15 21 18 20 14 7 10 7 11 12
18 19 21 24 25 26 25 25 23 27 9 7 7 4 6 16 2 1 0 2 2 1 2 4 5 4 3 3 4 2 2 1 2 4 5 1 1 7 12 13 14 12 8 11 15 11 10 11 10 10 11 6 11 12
18 20 23 25 26 26 25 23 19 6 2 6 8 6 5 4 3 1 2 1 3 1 2 2 6 5 3 3 3 4 2 2 2 6 3 3 3 10 13 16 16 13 13 10 10 17 13 13 12 9 8 8 9 6
20 21 22 24 26 26 24 19 16 14 15 0 1 3 1 3 5 3 3 4 3 3 3 4 7 1 4 4 3 4 7 5 3 3 1 3 6 11 15 14 15 12 13 11 14 14 15 15 13 8 7 8 11 9
21 22 24 27 25 22 17 16 16 10 3 2 3 7 3 4 1 2 3 3 5 1 4 3 4 4 3 5 3 4 2 3 3 4 4 4 13 15 14 12 14 15 14 16 15 15 14 13 13 9 6 4 8 5
22 23 27 23 12 14 21 23 23 3 3 4 2 4 4 3 1 3 2 2 3 2 2 4 4 4 5 5 4 4 6 4 3 3 5 8 8 11 13 15 14 14 15 14 13 13 14 14 12 12 7 4 6 8
22 22 5 6 20 24 28 19 4 4 3 4 5 3 3 3 4 3 2 1 3 2 3 4 4 5 5 3 4 4 2 2 4 3 5 4 10 12 14 15 16 15 15 14 12 13 15 14 11 10 9 4 4 8
17 5 13 20 24 28 26 3 2 5 5 4 4 4 3 2 4 1 2 2 2 4 3 3 5 0 1 3 2 3 3 4 3 4 4 5 10 13 15 15 16 17 16 15 14 15 14 11 4 2 3 4 3 8
5 8 21 24 20 13 3 3 3 4 5 4 1 4 2 3 2 2 1 2 4 2 2 2 3 4 1 2 4 3 2 1 2 3 3 8 10 13 13 16 15 15 17 15 15 7 7 8 7 4 4 3 7 6
14 17 26 27 9 5 4 5 3 3 5 2 3 2 2 1 2 4 3 2 3 4 5 3 4 1 2 2 3 1 1 1 2 3 4 11 9 12 13 15 15 15 16 17 14 8 6 6 8 8 7 7 7 8
26 24 23 18 9 3 4 5 2 2 3 4 2 2 2 3 4 3 3 2 3 3 4 2 3 3 4 4 3 4 3 3 1 3 5 6 8 10 11 11 10 13 12 15 14 18 9 7 9 9 8 10 11 11
10 4 9 2 3 4 3 4 5 4 4 2 3 1 3 2 3 2 1 1 4 2 2 2 3 4 2 5 5 4 3 3 3 3 3 5 8 7 8 9 10 9 9 10 11 13 16 12 10 10 11 12 10 9
4 10 4 3 3 4 5 4 4 5 2 4 2 3 2 3 3 3 2 4 2 3 4 4 3 3 5 5 4 4 5 6 5 4 5 5 5 7 8 8 9 9 9 9 9 9 10 9 8 10 10 9 12 11
6 4 3 4 3 2 8 2 2 4 3 4 2 2 1 2 2 3 2 2 3 3 4 4 3 3 9 6 6 5 5 6 5 2 3 4 4 6 6 7 7 8 9 10 8 8 9 9 11 10 10 10 10 11
6 3 3 3 4 5 4 4 4 4 3 2 2 2 3 4 2 2 2 2 3 2 2 3 7 7 7 5 4 4 3 4 3 1 4 4 4 5 5 6 6 7 6 6 8 9 9 10 10 11 11 12 13 12
2 5 2 5 3 4 5 5 4 3 3 1 3 4 2 3 2 2 4 3 3 3 4 3 5 4 7 4 3 3 4 4 3 4 3 2 5 5 4 4 5 5 5 6 7 7 6 7 7 9 9 9 11 10
2 4 6 4 4 4 4 3 3 5 4 2 3 1 2 3 2 3 3 5 4 4 4 5 5 7 4 5 6 4 4 4 5 4 1 2 2 2 3 4 3 5 5 5 5 6 7 6 7 7 6 7 7 7
4 5 5 5 4 4 5 3 2 2 3 2 1 1 2 2 3 3 1 1 3 3 4 5 6 7 7 5 4 5 5 5 5 4 4 4 4 3 3 2 1 2 4 5 5 5 5 5 5 5 5 5 5 5
6 4 5 4 4 3 4 4 2 2 1 2 4 2 2 2 4 4 4 4 6 6 5 4 5 9 8 7 7 7 5 5 5 3 0 1 3 4 4 3 3 3 1 1 1 2 2 0 0 3 5 6 6 6
5 4 3 7 4 4 3 4 3 2 2 1 4 2 4 2 3 3 3 5 5 7 5 5 3 5 5 5 5 5 5 7 7 6 7 4 4 4 4 4 4 3 2 1 2 4 6 5 8 6 6 6 5 7
6 5 4 5 5 5 5 4 3 3 1 2 2 3 3 3 3 2 6 5 6 7 7 8 7 7 7 10 7 4 3 6 6 5 4 4 5 4 5 6 5 5 4 3 2 4 7 6 6 6 7 6 5 5
4 1 4 6 7 11 13 11 8 4 3 5 7 7 9 4 3 3 5 6 6 5 7 8 7 7 10 9 9 8 4 3 6 4 4 2 3 5 4 5 4 4 5 6 5 5 6 5 5 6 7 7 7 6
4 6 4 5 5 7 6 4 4 4 4 4 6 4 1 2 4 3 4 5 5 6 8 8 8 5 6 7 7 5 8 6 6 5 7 4 3 3 4 4 5 5 6 6 6 5 7 7 6 6 6 7 7 7
5 5 5 4 4 4 3 1 3 4 4 3 5 5 5 7 7 6 2 4 5 6 8 7 7 9 10 11 11 9 9 6 8 8 7 6 7 6 4 4 5 5 7 6 6 6 7 9 7 7 7 7 7 8
Wind_Direction
338 340 339 338 337 336 335 336 337 336 332 332 334 335 334 339 341 351 274 242 145 235 277 216 193 216 325 271 142 254 33 343 52 125 165 238 193 270 49 209 199 181 162 222 142 237 290 158 130 176 209 185 184 201
335 335 336 335 333 332 333 333 333 331 329 329 328 331 331 333 334 337 284 302 1 176 239 224 247 224 196 220 168 232 181 185 208 114 190 134 301 1 158 249 333 239 182 189 168 214 229 234 206 204 165 174 199 188
332 332 331 332 330 330 330 330 329 328 327 324 325 328 328 328 325 307 270 287 349 351 306 26 290 276 278 215 180 143 287 179 86 171 164 182 210 134 189 241 217 269 164 202 88 261 220 211 192 177 187 206 187 199
326 327 329 329 328 328 328 328 326 326 324 321 322 326 325 323 318 289 222 265 60 265 281 284 308 311 299 320 189 159 155 75 127 94 123 161 180 165 207 215 182 205 170 208 245 270 303 246 230 219 210 206 201 205
321 323 325 325 325 326 326 325 324 323 323 319 319 325 323 321 310 261 204 239 212 121 251 282 308 275 298 256 199 133 123 120 121 91 135 221 215 104 281 151 241 174 212 174 235 233 195 246 233 219 196 211 210 202
317 319 321 321 323 324 324 324 324 322 322 317 318 325 320 319 327 77 25 338 214 192 352 334 288 343 342 353 144 140 125 122 146 158 208 226 222 122 220 262 278 341 296 225 241 216 225 218 211 191 209 217 211 203
314 316 318 318 321 322 322 323 323 323 320 315 315 321 313 292 162 151 180 223 328 164 70 322 318 344 341 56 59 29 26 330 10 35 263 227 178 111 182 338 339 339 330 311 270 226 178 184 211 211 195 209 201 195
311 313 316 318 320 321 321 322 323 324 318 314 315 318 315 121 208 14 314 240 288 63 66 343 304 360 10 345 324 101 226 309 199 238 248 226 42 42 50 328 335 343 350 1 342 218 201 208 210 205 206 199 206 194
310 311 314 316 318 320 320 321 324 324 317 314 311 318 119 46 51 267 292 267 146 129 123 80 134 256 318 248 222 301 152 263 286 236 235 86 3 54 300 326 339 350 351 338 339 0 350 281 214 228 188 183 156 151
307 311 313 315 317 319 321 322 326 322 317 313 346 17 331 4 300 314 39 46 39 346 28 210 170 232 140 252 281 337 182 243 303 255 93 75 99 220 264 310 330 350 356 349 358 353 348 348 341 277 220 181 172 176
309 312 316 317 318 319 323 320 327 325 340 1 356 313 304 298 325 49 134 149 150 36 258 248 216 252 246 187 231 154 264 305 310 298 54 69 344 348 330 332 327 317 354 352 347 330 317 297 311 19 355 226 176 185
311 315 317 314 316 315 316 315 322 342 318 277 278 308 298 304 343 2 306 24 46 252 266 217 261 247 295 80 57 12 342 310 240 45 81 358 290 337 336 329 321 317 322 334 348 323 328 331 331 354 13 354 307 195
309 308 305 305 310 313 307 304 307 284 295 127 212 251 187 270 21 10 31 319 318 295 294 300 323 262 8 50 59 39 22 358 74 29 24 251 301 322 324 321 315 321 322 322 328 323 326 327 322 318 0 342 344 247
310 309 309 303 309 299 298 308 309 320 284 268 261 310 179 301 241 188 190 215 241 222 300 298 291 61 353 49 8 24 342 36 30 15 303 319 332 327 327 329 331 329 329 325 320 319 315 309 307 324 309 3 319 307
313 310 304 300 279 312 322 325 314 236 193 249 232 246 241 256 181 216 205 35 317 285 344 342 32 70 12 60 37 24 18 27 0 265 288 330 330 325 326 326 327 325 322 318 307 308 306 305 303 301 292 235 267 271
316 311 250 256 341 334 319 317 300 164 227 222 238 282 278 63 337 346 35 6 304 358 11 37 53 59 25 59 56 35 36 284 263 290 316 331 332 328 330 331 328 312 317 312 309 309 301 282 265 264 276 229 249 297
317 246 318 324 329 320 304 252 256 220 234 238 249 230 205 177 210 236 149 241 312 68 25 41 53 120 98 53 67 136 195 238 295 315 316 327 345 336 328 326 338 340 339 335 326 325 322 359 9 5 310 345 347 273
252 299 310 309 326 311 276 234 251 251 251 249 200 277 248 191 163 149 109 342 79 93 71 128 142 52 95 139 286 250 290 282 299 310 328 351 332 322 328 329 329 343 330 334 336 318 329 342 357 345 333 305 287 282
291 293 294 296 294 302 298 281 200 257 257 260 270 265 216 203 13 127 130 93 102 117 96 49 71 96 276 190 213 229 180 244 259 288 358 350 332 330 332 340 348 347 342 339 340 346 331 346 11 4 12 30 35 20
293 289 282 279 192 241 271 265 253 244 272 252 303 329 268 192 169 140 133 113 104 81 60 88 191 212 185 206 158 150 182 206 128 4 356 343 342 331 344 352 348 345 347 350 358 10 353 33 30 20 22 44 50 32
293 271 314 139 177 231 278 291 286 226 286 280 265 11 267 96 116 123 149 144 66 102 118 209 203 247 196 128 127 140 148 117 98 73 353 334 332 348 354 356 352 354 3 2 1 5 19 21 28 33 35 35 35 45
264 303 289 247 253 206 232 233 235 287 289 251 300 185 242 142 150 185 158 66 97 194 167 172 226 132 132 128 143 139 120 111 100 60 358 330 356 7 5 2 357 8 17 14 11 16 22 21 23 38 41 45 48 48
297 217 231 264 282 286 259 318 250 250 235 251 4 302 78 80 203 92 79 144 179 190 174 192 232 143 124 138 112 98 104 104 90 51 7 11 359 23 13 9 3 11 21 25 29 33 37 31 38 48 47 50 55 56
218 253 263 251 206 261 273 259 217 254 238 230 231 238 175 162 145 95 174 198 215 169 165 190 123 101 102 82 105 123 123 105 112 70 57 56 32 30 17 15 14 18 20 29 38 44 43 46 48 60 64 67 67 66
294 258 179 269 257 252 250 245 223 254 242 258 334 261 182 93 111 193 189 214 168 188 200 148 130 139 134 134 129 136 140 124 112 87 35 64 61 52 32 48 24 14 360 22 39 45 60 65 58 56 61 62 65 65
269 244 182 243 214 213 238 317 23 30 275 277 245 196 94 125 194 230 212 180 186 173 167 152 141 114 124 146 148 146 163 135 114 106 197 139 110 125 77 51 33 19 4 9 37 37 35 31 41 50 58 56 56 61
248 258 234 227 266 312 301 298 262 250 300 297 264 119 147 234 217 219 241 166 129 155 152 140 131 141 146 147 131 141 149 145 158 179 176 176 190 185 149 147 118 281 359 26 42 54 49 37 33 40 42 30 44 68
235 264 249 318 331 321 312 298 253 242 267 15 352 227 235 234 207 214 190 194 148 143 136 138 133 145 147 156 153 149 145 146 144 138 110 264 217 214 197 178 230 241 281 349 345 22 23 212 68 35 38 30 36 44
235 255 305 290 314 289 282 241 240 248 339 104 152 282 301 326 195 170 177 166 136 143 145 141 140 126 122 127 142 146 143 152 149 183 223 229 185 249 214 196 207 227 225 173 141 109 53 37 81 88 81 73 59 58
230 200 234 232 236 246 226 215 269 299 302 259 287 313 281 283 259 194 136 150 158 178 177 172 163 152 146 141 139 142 164 153 167 152 181 204 213 192 175 188 203 219 206 205 71 52 52 64 53 58 64 57 54 51
286 190 219 223 246 247 250 256 262 267 256 265 272 263 253 246 273 205 172 180 187 144 141 157 161 158 153 151 152 148 165 216 168 110 102 145 124 94 120 140 147 131 116 132 134 123 112 95 97 95 90 87 87 84
223 214 193 223 262 268 235 216 222 218 220 204 243 212 233 150 221 262 212 147 149 163 175 161 158 165 146 145 153 153 146 134 127 118 103 101 90 76 139 123 113 110 106 103 106 106 106 107 104 101 94 91 85 76
218 243 254 282 292 280 272 271 271 265 229 226 242 223 194 183 213 231 255 166 154 161 169 164 137 133 136 125 122 109 101 108 115 106 103 91 90 90 86 82 93 104 110 108 106 108 106 109 106 105 103 102 96 88